• In Latvia
  • List of Countries
  • For 7 days
  • Water Temperature
  • Satellite Maps
  • Weather Map
  • Weather Widgets
  • user-avatar
    Login

    Hourly Weather Djelfa

    Today, 24 April, Tuesday

    Time Temperature Precipitation Wind Pressure Humidity
    00:00 +20°C° 0 mm 7 mps 665 mmHg 25%
    01:00 +18°C° 0.1 mm 7 mps 665 mmHg 27%
    02:00 +18°C° 0.1 mm 7 mps 664 mmHg 28%
    03:00 +17°C° 0.1 mm 7 mps 664 mmHg 29%
    04:00 +17°C° 0 mm 7 mps 665 mmHg 29%
    05:00 +17°C° 0 mm 7 mps 665 mmHg 29%
    06:00 +17°C° 0 mm 7 mps 665 mmHg 29%
    07:00 +18°C° 0 mm 7 mps 665 mmHg 27%
    08:00 +21°C° 0 mm 8 mps 666 mmHg 25%
    09:00 +23°C° 0 mm 9 mps 666 mmHg 23%
    10:00 +24°C° 0 mm 8 mps 666 mmHg 22%
    11:00 +26°C° 0 mm 8 mps 666 mmHg 21%
    12:00 +28°C° 0 mm 8 mps 666 mmHg 20%
    13:00 +28°C° 0 mm 8 mps 666 mmHg 21%
    14:00 +28°C° 0 mm 8 mps 665 mmHg 23%
    15:00 +28°C° 0 mm 8 mps 664 mmHg 24%
    16:00 +27°C° 0.4 mm 8 mps 664 mmHg 29%
    17:00 +26°C° 0.4 mm 8 mps 664 mmHg 35%
    18:00 +23°C° 0.4 mm 8 mps 663 mmHg 40%
    19:00 +23°C° 0.2 mm 9 mps 663 mmHg 40%
    20:00 +22°C° 0.2 mm 9 mps 664 mmHg 41%
    21:00 +21°C° 0.2 mm 9 mps 664 mmHg 41%
    22:00 +21°C° 0.2 mm 8 mps 664 mmHg 43%
    23:00 +20°C° 0.2 mm 7 mps 664 mmHg 46%

    Tomorrow, 25 April, Wednesday

    Time Temperature Precipitation Wind Pressure Humidity
    00:00 +20°C° 0.2 mm 6 mps 663 mmHg 48%
    01:00 +19°C° 0.2 mm 6 mps 663 mmHg 50%
    02:00 +19°C° 0.2 mm 6 mps 663 mmHg 53%
    03:00 +17°C° 0.2 mm 5 mps 662 mmHg 56%
    04:00 +17°C° 0.3 mm 6 mps 662 mmHg 56%
    05:00 +17°C° 0.3 mm 6 mps 663 mmHg 56%
    06:00 +17°C° 0.3 mm 6 mps 663 mmHg 56%
    07:00 +19°C° 0.5 mm 5 mps 663 mmHg 55%
    08:00 +19°C° 0.5 mm 5 mps 663 mmHg 54%
    09:00 +19°C° 0.5 mm 4 mps 663 mmHg 54%
    10:00 +20°C° 0.3 mm 5 mps 663 mmHg 49%
    11:00 +21°C° 0.3 mm 6 mps 664 mmHg 45%
    12:00 +22°C° 0.3 mm 6 mps 664 mmHg 41%
    13:00 +22°C° 2.7 mm 6 mps 663 mmHg 45%
    14:00 +21°C° 2.7 mm 6 mps 662 mmHg 50%
    15:00 +20°C° 2.7 mm 6 mps 661 mmHg 54%
    16:00 +20°C° 2.6 mm 6 mps 661 mmHg 56%
    17:00 +20°C° 2.6 mm 7 mps 660 mmHg 57%
    18:00 +18°C° 2.6 mm 7 mps 660 mmHg 59%
    19:00 +17°C° 0.2 mm 8 mps 660 mmHg 66%
    20:00 +15°C° 0.2 mm 9 mps 660 mmHg 73%
    21:00 +13°C° 0.2 mm 10 mps 660 mmHg 80%
    22:00 +13°C° 0 mm 10 mps 660 mmHg 78%
    23:00 +12°C° 0 mm 9 mps 660 mmHg 75%

    Day after tomorrow, 26 April, Thursday

    Time Temperature Precipitation Wind Pressure Humidity
    00:00 +12°C° 0 mm 9 mps 660 mmHg 72%
    01:00 +11°C° 0 mm 7 mps 659 mmHg 72%
    02:00 +11°C° 0 mm 6 mps 658 mmHg 73%
    03:00 +12°C° 0 mm 5 mps 658 mmHg 73%
    04:00 +12°C° 0.1 mm 5 mps 658 mmHg 73%
    05:00 +12°C° 0.1 mm 5 mps 658 mmHg 73%
    06:00 +10°C° 0.1 mm 5 mps 658 mmHg 74%
    07:00 +11°C° 0.3 mm 6 mps 658 mmHg 73%
    08:00 +12°C° 0.3 mm 7 mps 659 mmHg 73%
    09:00 +14°C° 0.3 mm 7 mps 659 mmHg 72%
    10:00 +13°C° 0.1 mm 8 mps 659 mmHg 71%
    11:00 +13°C° 0.1 mm 9 mps 659 mmHg 70%
    12:00 +15°C° 0.1 mm 9 mps 659 mmHg 70%
    13:00 +15°C° 0.1 mm 9 mps 659 mmHg 67%
    14:00 +15°C° 0.1 mm 9 mps 659 mmHg 65%
    15:00 +15°C° 0.1 mm 9 mps 659 mmHg 63%
    16:00 +13°C° 0 mm 9 mps 659 mmHg 64%
    17:00 +13°C° 0 mm 9 mps 659 mmHg 66%
    18:00 +12°C° 0 mm 9 mps 659 mmHg 68%
    19:00 +12°C° 0 mm 8 mps 659 mmHg 72%
    20:00 +11°C° 0 mm 8 mps 659 mmHg 75%
    21:00 +11°C° 0 mm 8 mps 660 mmHg 79%
    22:00 +11°C° 0.1 mm 8 mps 660 mmHg 80%
    23:00 +11°C° 0.1 mm 8 mps 659 mmHg 81%

    27 April, Friday

    Time Temperature Precipitation Wind Pressure Humidity
    00:00 +10°C° 0.1 mm 8 mps 659 mmHg 83%
    01:00 +10°C° 0.1 mm 9 mps 659 mmHg 82%
    02:00 +9°C° 0.1 mm 10 mps 659 mmHg 82%
    03:00 +9°C° 0.1 mm 11 mps 658 mmHg 82%
    04:00 +9°C° 0.1 mm 10 mps 658 mmHg 82%
    05:00 +9°C° 0.1 mm 10 mps 658 mmHg 81%
    06:00 +8°C° 0.1 mm 10 mps 659 mmHg 81%
    07:00 +9°C° 0.1 mm 10 mps 659 mmHg 79%
    08:00 +9°C° 0.1 mm 10 mps 659 mmHg 77%
    09:00 +11°C° 0.1 mm 10 mps 659 mmHg 75%
    10:00 +11°C° 0 mm 10 mps 660 mmHg 71%
    11:00 +12°C° 0 mm 10 mps 660 mmHg 67%
    12:00 +13°C° 0 mm 10 mps 660 mmHg 63%
    13:00 +14°C° 0 mm 10 mps 660 mmHg 59%
    14:00 +14°C° 0 mm 10 mps 660 mmHg 56%
    15:00 +16°C° 0 mm 10 mps 660 mmHg 52%
    16:00 +15°C° 0 mm 9 mps 660 mmHg 56%
    17:00 +13°C° 0 mm 9 mps 661 mmHg 59%
    18:00 +13°C° 0 mm 8 mps 661 mmHg 63%
    19:00 +12°C° 0 mm 7 mps 661 mmHg 67%
    20:00 +11°C° 0 mm 6 mps 662 mmHg 70%
    21:00 +10°C° 0 mm 5 mps 662 mmHg 74%
    22:00 +11°C° 0 mm 4 mps 662 mmHg 76%
    23:00 +11°C° 0 mm 4 mps 662 mmHg 78%

    28 April, Saturday

    Time Temperature Precipitation Wind Pressure Humidity
    00:00 +10°C° 0 mm 3 mps 661 mmHg 80%
    01:00 +10°C° 0 mm 3 mps 661 mmHg 81%
    02:00 +10°C° 0 mm 3 mps 661 mmHg 82%
    03:00 +9°C° 0 mm 3 mps 660 mmHg 84%
    04:00 +10°C° 0 mm 3 mps 660 mmHg 82%
    05:00 +10°C° 0 mm 3 mps 661 mmHg 81%
    06:00 +10°C° 0 mm 3 mps 661 mmHg 80%
    07:00 +12°C° 0 mm 3 mps 661 mmHg 68%
    08:00 +14°C° 0 mm 3 mps 662 mmHg 57%
    09:00 +17°C° 0 mm 4 mps 663 mmHg 45%
    10:00 +18°C° 0 mm 3 mps 663 mmHg 41%
    11:00 +20°C° 0 mm 3 mps 663 mmHg 37%
    12:00 +21°C° 0 mm 3 mps 663 mmHg 33%
    13:00 +21°C° 0 mm 3 mps 663 mmHg 31%
    14:00 +22°C° 0 mm 3 mps 663 mmHg 28%
    15:00 +24°C° 0 mm 3 mps 662 mmHg 26%
    16:00 +24°C° 0 mm 3 mps 662 mmHg 27%
    17:00 +23°C° 0 mm 2 mps 662 mmHg 28%
    18:00 +23°C° 0 mm 2 mps 662 mmHg 30%
    19:00 +20°C° 0.9 mm 3 mps 663 mmHg 40%
    20:00 +19°C° 0.9 mm 4 mps 663 mmHg 51%
    21:00 +16°C° 0.9 mm 5 mps 663 mmHg 62%
    22:00 +17°C° 0.3 mm 4 mps 663 mmHg 63%
    23:00 +16°C° 0.3 mm 3 mps 663 mmHg 64%

    29 April, Sunday

    Time Temperature Precipitation Wind Pressure Humidity
    00:00 +16°C° 0.3 mm 3 mps 663 mmHg 65%
    01:00 +14°C° 2.6 mm 3 mps 662 mmHg 71%
    02:00 +14°C° 2.6 mm 4 mps 662 mmHg 76%
    03:00 +13°C° 2.6 mm 5 mps 662 mmHg 82%
    04:00 +13°C° 0.6 mm 4 mps 662 mmHg 77%
    05:00 +13°C° 0.6 mm 3 mps 662 mmHg 72%
    06:00 +14°C° 0.6 mm 2 mps 662 mmHg 68%
    07:00 +16°C° 0.2 mm 3 mps 663 mmHg 60%
    08:00 +17°C° 0.2 mm 4 mps 663 mmHg 53%
    09:00 +19°C° 0.2 mm 5 mps 664 mmHg 46%
    10:00 +20°C° 0 mm 6 mps 664 mmHg 42%
    11:00 +22°C° 0 mm 7 mps 664 mmHg 38%
    12:00 +23°C° 0 mm 8 mps 664 mmHg 34%
    13:00 +23°C° 0 mm 8 mps 664 mmHg 32%
    14:00 +24°C° 0 mm 8 mps 663 mmHg 30%
    15:00 +24°C° 0 mm 7 mps 663 mmHg 29%
    16:00 +22°C° 0.1 mm 7 mps 663 mmHg 39%
    17:00 +20°C° 0.1 mm 7 mps 662 mmHg 50%
    18:00 +17°C° 0.1 mm 6 mps 662 mmHg 61%
    19:00 +16°C° 0.3 mm 7 mps 663 mmHg 67%
    20:00 +14°C° 0.3 mm 7 mps 663 mmHg 74%
    21:00 +12°C° 0.3 mm 7 mps 663 mmHg 80%
    22:00 +11°C° 0.5 mm 8 mps 663 mmHg 78%
    23:00 +11°C° 0.5 mm 8 mps 663 mmHg 76%
    Show more